sat.trackr.live / text

‹ back to catalog

KUIPER-00248

NORAD 67153 · 2025-301W

PAYLOAD ACTIVE UNKNOWN

§ Identity

Operator
Country
US
Launch date
2025-12-16
Launch site
AFETR
Launch vehicle
Mass (kg)
RCS (m²)

External: N2YO · Heavens-Above · Gunter

§ Orbital elements

Epoch: 2026-09-20T23:34:28.579008Z

Period
97.30 min
Inclination
51.8988°
Eccentricity
0.0000568
Mean motion
14.79934331 rev/d
Perigee alt
629.1 km
Apogee alt
629.9 km
Semi-major
7,007.7 km
B*
2.4313e-4
RAAN
257.1185°
Arg perigee
66.5757°
Mean anomaly
293.5265°
Rev number
4,316

§ Raw data

KUIPER-002481 67153U 25301W   26263.98227522  .00001633  00000+0  24313-3 0  99972 67153  51.8988 257.1185 0000568  66.5757 293.5265 14.79934331 43167

JSON: /api/v1/satellites/67153 · /tle

For live sub-satellite position, see the globe view (requires WebGL).

§ Visibility from observer

Set your observer location to see the next 7 days of passes ≥ 10°. The values pass through the URL so the page stays shareable.

No JS? Fill the form by hand. The geolocation button needs JavaScript.